SXS8DG LTBJ-EDLW

Flight info

Callsign SXS8DG
Flight time N/A
Altitude 34000
Route VEXOL UY134 KERMA UL618 LMO DCT EVIVI L863 OKANA DCT BGD DCT NIVIS DCT BABIT DCT ARSIN DCT DITIS DCT KILNU DCT ABGUS Z94 POVEL L986 SAS L980 OSNAD M170 HMM N853 DOMEG DOMEG2A
Aircraft B738/M-SDE2E3FGHIRWXY/LB1

Departure

Time 2026-05-05 16:14
Airport Adnan Menderes International Airport (LTBJ)

Arrival

Time N/A
Airport Dortmund Airport (EDLW)
Time Latitude Longitude Altitude Speed Heading
2026-05-05 15:53 38.29250 27.15079 410 ft 0 kts 257°
2026-05-05 16:04 38.29251 27.15080 410 ft 1 kts 257°
2026-05-05 16:04 38.29254 27.15100 410 ft 2 kts 257°
2026-05-05 16:04 38.29258 27.15120 410 ft 2 kts 257°
2026-05-05 16:04 38.29263 27.15140 402 ft 2 kts 231°
2026-05-05 16:05 38.29273 27.15150 403 ft 1 kts 171°
2026-05-05 16:05 38.29278 27.15149 404 ft 0 kts 165°
2026-05-05 16:07 38.29277 27.15149 404 ft 1 kts 165°
2026-05-05 16:07 38.29268 27.15152 403 ft 2 kts 165°
2026-05-05 16:08 38.29248 27.15159 409 ft 4 kts 165°
2026-05-05 16:08 38.29217 27.15168 406 ft 5 kts 167°
2026-05-05 16:08 38.29176 27.15180 409 ft 7 kts 167°
2026-05-05 16:08 38.29127 27.15195 407 ft 8 kts 167°
2026-05-05 16:09 38.29070 27.15212 410 ft 9 kts 167°
2026-05-05 16:09 38.29017 27.15246 410 ft 9 kts 111°
2026-05-05 16:09 38.28981 27.15305 410 ft 9 kts 163°
2026-05-05 16:09 38.28917 27.15325 411 ft 9 kts 166°
2026-05-05 16:10 38.28855 27.15344 412 ft 9 kts 166°
2026-05-05 16:10 38.28795 27.15362 412 ft 9 kts 166°
2026-05-05 16:10 38.28737 27.15380 415 ft 9 kts 166°
2026-05-05 16:10 38.28679 27.15397 413 ft 9 kts 167°
2026-05-05 16:11 38.28611 27.15417 415 ft 11 kts 167°
2026-05-05 16:11 38.28328 27.15502 417 ft 14 kts 167°
2026-05-05 16:12 38.28234 27.15530 417 ft 14 kts 167°
2026-05-05 16:12 38.28100 27.15615 416 ft 6 kts 94°
2026-05-05 16:13 38.28135 27.15794 413 ft 8 kts 55°
2026-05-05 16:13 38.28189 27.15799 416 ft 8 kts 345°
2026-05-05 16:13 38.28246 27.15781 413 ft 10 kts 347°
2026-05-05 16:14 38.29137 27.15510 413 ft 128 kts 347°
2026-05-05 16:14 38.31318 27.14814 1164 ft 177 kts 347°
2026-05-05 16:15 38.33759 27.14166 2727 ft 182 kts 348°
2026-05-05 16:15 38.36571 27.13423 3265 ft 225 kts 345°
2026-05-05 16:16 38.38844 27.10612 4202 ft 254 kts 291°
2026-05-05 16:16 38.38997 27.05943 5756 ft 270 kts 269°
2026-05-05 16:17 38.38728 27.01124 7367 ft 276 kts 270°
2026-05-05 16:17 38.38605 26.98661 8143 ft 280 kts 271°
2026-05-05 16:18 38.38376 26.93666 9725 ft 286 kts 271°
2026-05-05 16:18 38.38263 26.91118 10373 ft 293 kts 271°
2026-05-05 16:18 38.38022 26.85537 10741 ft 337 kts 271°
2026-05-05 16:19 38.37887 26.82458 10906 ft 358 kts 271°
2026-05-05 16:19 38.37741 26.79213 11124 ft 375 kts 270°
2026-05-05 16:19 38.37424 26.72471 12304 ft 384 kts 270°
2026-05-05 16:20 38.37100 26.65631 13581 ft 390 kts 270°
2026-05-05 16:20 38.36770 26.58666 14742 ft 397 kts 271°
2026-05-05 16:21 38.36434 26.51614 15906 ft 401 kts 271°
2026-05-05 16:22 38.35913 26.40847 17542 ft 410 kts 271°
2026-05-05 16:22 38.35553 26.33539 18557 ft 416 kts 271°
2026-05-05 16:23 38.35185 26.26141 19472 ft 421 kts 270°
2026-05-05 16:23 38.34998 26.22411 19919 ft 423 kts 270°
2026-05-05 16:23 38.34825 26.14901 20787 ft 425 kts 275°
2026-05-05 16:24 38.35022 26.11150 21184 ft 425 kts 279°
2026-05-05 16:24 38.35333 26.07404 21587 ft 427 kts 280°
2026-05-05 16:24 38.35936 25.99832 22370 ft 432 kts 279°
2026-05-05 16:25 38.36209 25.96008 22753 ft 434 kts 279°
2026-05-05 16:25 38.37936 25.88858 23427 ft 426 kts 308°
2026-05-05 16:25 38.39900 25.86063 23799 ft 423 kts 321°
2026-05-05 16:26 38.45051 25.82603 24389 ft 423 kts 343°
2026-05-05 16:26 38.50734 25.80490 24946 ft 428 kts 343°
2026-05-05 16:27 38.53594 25.79417 25229 ft 429 kts 343°
2026-05-05 16:27 38.56462 25.78304 25499 ft 431 kts 343°
2026-05-05 16:27 38.59336 25.77171 25765 ft 433 kts 343°
2026-05-05 16:27 38.62219 25.76028 26034 ft 435 kts 343°
2026-05-05 16:28 38.65113 25.74881 26296 ft 436 kts 343°
2026-05-05 16:28 38.68003 25.73663 26535 ft 438 kts 339°
2026-05-05 16:28 38.70741 25.71926 26782 ft 441 kts 329°
2026-05-05 16:28 38.73326 25.69820 27144 ft 440 kts 329°
2026-05-05 16:29 38.75899 25.67710 27544 ft 438 kts 329°
2026-05-05 16:29 38.78464 25.65615 27918 ft 437 kts 329°
2026-05-05 16:29 38.81032 25.63528 28225 ft 437 kts 329°
2026-05-05 16:29 38.83607 25.61445 28559 ft 437 kts 329°
2026-05-05 16:30 38.86174 25.59374 28953 ft 436 kts 329°
2026-05-05 16:30 38.88738 25.57308 29319 ft 434 kts 329°
2026-05-05 16:30 38.91298 25.55246 29634 ft 435 kts 329°
2026-05-05 16:30 38.93858 25.53184 29968 ft 434 kts 329°
2026-05-05 16:31 38.96412 25.51123 30303 ft 433 kts 329°
2026-05-05 16:31 38.98959 25.49067 30611 ft 432 kts 329°
2026-05-05 16:31 39.01502 25.47012 30869 ft 432 kts 329°
2026-05-05 16:31 39.04044 25.44956 31130 ft 432 kts 329°
2026-05-05 16:32 39.06583 25.42900 31430 ft 430 kts 329°
2026-05-05 16:32 39.09110 25.40852 31733 ft 429 kts 329°
2026-05-05 16:32 39.11639 25.38802 31967 ft 430 kts 329°
2026-05-05 16:32 39.14167 25.36749 32222 ft 429 kts 329°
2026-05-05 16:33 39.16689 25.34701 32517 ft 428 kts 329°
2026-05-05 16:33 39.19203 25.32656 32795 ft 427 kts 329°
2026-05-05 16:33 39.21719 25.30609 33008 ft 428 kts 329°
2026-05-05 16:33 39.24235 25.28559 33247 ft 427 kts 328°
2026-05-05 16:34 39.26746 25.26512 33531 ft 426 kts 328°
2026-05-05 16:34 39.29247 25.24471 33811 ft 425 kts 328°
2026-05-05 16:34 39.31748 25.22429 34013 ft 425 kts 328°
2026-05-05 16:34 39.34255 25.20380 34031 ft 428 kts 328°
2026-05-05 16:35 39.39282 25.16266 34043 ft 427 kts 328°
2026-05-05 16:35 39.44290 25.12160 34045 ft 426 kts 328°
2026-05-05 16:36 39.49285 25.08058 34045 ft 425 kts 328°
2026-05-05 16:36 39.54279 25.03950 34047 ft 425 kts 328°
2026-05-05 16:37 39.59276 24.99832 34044 ft 426 kts 328°
2026-05-05 16:37 39.64282 24.95700 34041 ft 427 kts 328°
2026-05-05 16:38 39.69304 24.91547 34043 ft 429 kts 328°
2026-05-05 16:38 39.74342 24.87373 34037 ft 430 kts 328°
2026-05-05 16:39 39.79399 24.83177 34042 ft 432 kts 328°
2026-05-05 16:39 39.84472 24.78959 34039 ft 433 kts 328°
2026-05-05 16:40 39.89555 24.74726 34040 ft 434 kts 328°
2026-05-05 16:40 39.94652 24.70474 34037 ft 435 kts 328°
2026-05-05 16:41 39.99755 24.66208 34036 ft 436 kts 328°
2026-05-05 16:41 40.04866 24.61929 34031 ft 437 kts 328°
2026-05-05 16:42 40.09980 24.57639 34030 ft 437 kts 328°
2026-05-05 16:42 40.15094 24.53341 34031 ft 437 kts 328°
2026-05-05 16:43 40.20211 24.49033 34027 ft 437 kts 328°
2026-05-05 16:43 40.25328 24.44717 34030 ft 438 kts 328°
2026-05-05 16:44 40.30444 24.40395 34028 ft 438 kts 328°
2026-05-05 16:44 40.34695 24.36796 34026 ft 438 kts 328°
2026-05-05 16:45 40.39812 24.32458 34025 ft 438 kts 327°
2026-05-05 16:45 40.45759 24.27407 34020 ft 438 kts 327°
2026-05-05 16:46 40.50049 24.23756 34021 ft 439 kts 327°
2026-05-05 16:46 40.55171 24.19389 34022 ft 439 kts 327°
2026-05-05 16:47 40.60302 24.15007 34021 ft 440 kts 327°
2026-05-05 16:47 40.65440 24.10610 34022 ft 441 kts 327°
2026-05-05 16:48 40.70589 24.06196 34019 ft 442 kts 327°
2026-05-05 16:48 40.75714 24.01794 34018 ft 443 kts 327°
2026-05-05 16:49 40.80883 23.97346 34018 ft 444 kts 327°
2026-05-05 16:49 40.86060 23.92883 34013 ft 445 kts 327°
2026-05-05 16:50 40.91245 23.88405 34011 ft 446 kts 327°
2026-05-05 16:50 40.96438 23.83911 34013 ft 446 kts 327°
2026-05-05 16:51 41.01634 23.79405 34013 ft 447 kts 327°
2026-05-05 16:51 41.06831 23.74890 34008 ft 447 kts 327°
2026-05-05 16:52 41.12028 23.70367 34005 ft 447 kts 327°
2026-05-05 16:52 41.17221 23.65838 34011 ft 447 kts 327°
2026-05-05 16:53 41.22414 23.61300 34000 ft 447 kts 326°
2026-05-05 16:53 41.27609 23.56751 34004 ft 447 kts 326°
2026-05-05 16:54 41.32807 23.52191 34003 ft 448 kts 326°
2026-05-05 16:54 41.38007 23.47621 34007 ft 448 kts 326°
2026-05-05 16:55 41.43366 23.43399 34014 ft 448 kts 333°
2026-05-05 16:55 41.48990 23.39792 34006 ft 449 kts 335°
2026-05-05 16:56 41.54633 23.36220 34009 ft 449 kts 334°
2026-05-05 16:56 41.60228 23.32604 34008 ft 450 kts 334°
2026-05-05 16:57 41.65855 23.28922 34013 ft 451 kts 334°
2026-05-05 16:57 41.71489 23.25219 34009 ft 451 kts 334°
2026-05-05 16:58 41.77129 23.21506 34016 ft 452 kts 334°
2026-05-05 16:58 41.82776 23.17783 34012 ft 453 kts 334°
2026-05-05 16:59 41.88426 23.14051 34014 ft 453 kts 334°
2026-05-05 16:59 41.94084 23.10307 34012 ft 453 kts 334°
2026-05-05 17:00 41.99736 23.06559 34005 ft 453 kts 334°
2026-05-05 17:00 42.05391 23.02801 34007 ft 453 kts 334°
2026-05-05 17:01 42.11040 22.99039 34000 ft 453 kts 334°
2026-05-05 17:01 42.16690 22.95270 33990 ft 453 kts 334°
2026-05-05 17:02 42.22334 22.91493 33996 ft 453 kts 334°
2026-05-05 17:02 42.27977 22.87708 33999 ft 453 kts 334°
2026-05-05 17:03 42.33684 22.83861 32817 ft 472 kts 334°
2026-05-05 17:03 42.36577 22.81912 32723 ft 460 kts 334°